EDT,Max TemperatureF,Mean TemperatureF,Min TemperatureF,Max Dew PointF,MeanDew PointF,Min DewpointF,Max Humidity, Mean Humidity, Min Humidity, Max Sea Level PressureIn, Mean Sea Level PressureIn, Min Sea Level PressureIn, Max VisibilityMiles, Mean VisibilityMiles, Min VisibilityMiles, Max Wind SpeedMPH, Mean Wind SpeedMPH, Max Gust SpeedMPH,PrecipitationIn, CloudCover, Events, WindDirDegrees
2013-9-1,90,81,73,73,71,69,94,75,52,29.87,29.83,29.78,10,10,7,13,4,17,0.00,2,Rain-Thunderstorm,174
2013-9-2,82,78,73,75,73,69,100,88,65,29.81,29.78,29.73,10,5,0,9,2,17,0.91,5,Fog-Rain-Thunderstorm,125
2013-9-3,84,78,69,72,66,55,97,76,41,29.92,29.80,29.74,10,7,1,12,3,18,0.01,1,,314
2013-9-4,82,73,64,59,56,54,78,58,39,30.05,30.00,29.93,10,10,10,14,7,16,0.00,0,,287
2013-9-5,81,70,59,61,55,44,80,59,35,30.16,30.04,29.99,10,10,10,20,5,24,0.00,1,,305
2013-9-6,73,64,54,50,45,38,75,52,28,30.28,30.22,30.17,10,10,10,10,7,,0.00,0,,17
2013-9-7,81,66,52,60,51,46,89,60,31,30.17,30.06,29.94,10,10,10,9,2,,0.00,0,,269
2013-9-8,84,72,61,65,58,46,81,60,41,30.10,29.93,29.87,10,10,10,15,6,22,0.00,2,,321
2013-9-9,75,64,54,63,54,45,78,63,52,30.25,30.19,30.12,10,10,9,12,6,16,0.00,4,,86
2013-9-10,88,78,69,73,69,63,87,76,59,30.21,30.15,30.09,10,9,8,12,6,17,0.00,5,,214
2013-9-11,93,84,75,75,72,70,91,69,50,30.15,30.08,30.01,10,7,3,14,5,20,0.00,0,,217
2013-9-12,89,80,71,73,71,66,94,77,57,30.00,29.86,29.73,10,7,2,24,5,47,0.09,3,Rain-Thunderstorm,232
2013-9-13,79,70,60,68,61,51,100,77,45,29.91,29.74,29.68,10,7,1,14,6,22,0.36,4,Rain,313
2013-9-14,68,60,52,48,46,45,80,63,49,30.18,30.04,29.92,10,10,10,15,10,22,0.00,2,,329
2013-9-15,75,60,48,56,48,44,86,63,40,30.25,30.18,30.11,10,10,10,10,3,,0.00,0,,251
2013-9-16,73,66,60,59,55,49,90,72,49,30.26,30.12,30.06,10,10,4,13,5,18,0.07,5,Rain,334
2013-9-17,66,57,48,48,41,37,77,58,34,30.45,30.38,30.28,10,10,10,18,9,18,0.00,1,,31
2013-9-18,72,58,46,48,44,41,86,61,34,30.38,30.30,30.22,10,10,10,9,2,,0.00,0,,263
2013-9-19,75,62,48,56,50,46,93,68,41,30.22,30.17,30.10,10,10,2,7,1,,0.01,0,,206
2013-9-20,80,66,54,59,56,51,93,69,44,30.12,30.07,30.01,10,10,9,7,2,,0.00,0,,196
2013-9-21,80,66,53,68,59,51,100,84,38,30.04,29.87,29.70,10,5,0,14,3,22,0.73,5,Fog-Rain,183
2013-9-22,72,64,57,64,53,44,94,69,41,29.95,29.80,29.69,10,9,1,16,8,23,0.51,4,Rain,327
2013-9-23,69,59,50,45,42,40,71,57,40,30.08,30.03,29.96,10,10,10,14,8,21,0.03,1,,338
2013-9-24,73,60,46,51,45,41,83,61,39,30.10,30.02,29.93,10,10,10,10,5,,0.02,0,,312
2013-9-25,75,63,51,51,46,43,86,60,34,29.99,29.95,29.90,10,10,10,7,4,,0.01,0,,360
2013-9-26,73,62,52,57,53,49,90,74,51,30.11,30.03,29.96,10,10,9,7,1,,0.01,2,,88
2013-9-27,72,64,57,57,54,49,93,72,45,30.28,30.20,30.12,10,10,10,9,4,,0.01,6,,44
2013-9-28,73,64,55,54,51,48,87,66,41,30.34,30.29,30.25,10,10,10,12,5,17,0.00,2,,58
2013-9-29,73,63,53,58,52,50,89,71,46,30.24,30.17,30.10,10,10,10,10,3,,0.01,1,,86
2013-9-30,75,63,51,54,50,48,90,68,40,30.11,30.06,30.01,10,10,10,7,1,,0.01,1,,309